Regional Weather Roundup
Issued by NWS State College, PA

Home | Current Version | Previous Version | Graphics & Text | Print | Product List | Glossary On
Versions: 1 2 3 4 5 6 7 8 9 10 11 12 13 14 15 16 17 18 19 20 21 22 23 24 25 26 27 28 29 30 31 32 33 34 35 36 37 38 39 40 41 42 43 44 45 46 47 48 49 50
000
ASUS41 KCTP 220810
RWRCTP

REGIONAL WEATHER ROUNDUP
NATIONAL WEATHER SERVICE STATE COLLEGE PA
400 AM EDT WED OCT 22 2014

Note: "fair" indicates few or no clouds below 12,000 feet with no
significant weather and/or obstructions to visibility.

* = STATION THAT DOES NOT REPORT PRECIPITATION /E.G. RAIN...SNOW...ETC/
    THUNDER OR FOG.

PAZ002>004-007>009-013>016-020>023-029>032-220900-
WESTERN PENNSYLVANIA

CITY           SKY/WX    TMP DP  RH WIND       PRES   REMARKS
ERIE           CLOUDY    46  43  87 NE15      30.12R
MEADVILLE      CLOUDY    45  42  89 N10       30.08R
FRANKLIN*      CLOUDY    45  39  81 N7        30.07R
NEW CASTLE       N/A     47  44  89 N6        30.09R
BEAVER COUNTY  NOT AVBL
BUTLER*        CLOUDY    46  41  81 N9        30.06R
PITTSBURGH INT CLOUDY    48  45  89 N13       30.04R
PITTSBURGH     CLOUDY    48  43  82 N12G22    30.02R
INDIANA*       CLOUDY    48  48 100 N6        30.04R
LATROBE        NOT AVBL
WASHINGTON CO* CLOUDY    46  45  93 N5        30.05R
$$

PAZ004>006-010>012-017>019-024>028-033>037-041-042-045-046-049>053-220900-
CENTRAL PENNSYLVANIA

CITY           SKY/WX    TMP DP  RH WIND       PRES   REMARKS
BRADFORD       CLOUDY    42  40  92 N8        30.03S
DUBOIS         CLOUDY    46  43  89 N14       30.00R
CLEARFIELD     CLOUDY    49  45  86 N7        29.99R
JOHNSTOWN      CLOUDY    46  44  93 N8        29.96S
ALTOONA        CLOUDY    49  46  90 N10       29.96R
STATE COLLEGE  CLOUDY    49  46  90 N3        29.96S
WILLIAMSPORT   CLOUDY    54  45  71 NW6       29.95S
SELINSGROVE    CLOUDY    54  47  77 N10       29.94S
FT INDIANTOWN  CLOUDY    54  54  99 NE6       29.90S
CAPITAL CITY   CLOUDY    56  47  71 N5        29.90S
HARRISBURG     CLOUDY    55  48  77 CALM      29.89S
YORK           RAIN      51  50  96 CALM      29.90S FOG
$$

PAZ038>040-043-044-047-048-054-055-060>062-067>071-220900-
EASTERN PENNSYLVANIA

CITY           SKY/WX    TMP DP  RH WIND       PRES   REMARKS
SCRANTON       CLOUDY    52  50  93 CALM      29.93F
MOUNT POCONO   CLOUDY    49  47  93 N8        29.91S
ALLENTOWN      CLOUDY    53  49  86 N8        29.89F
QUAKERTOWN*    CLOUDY    52  50  93 N9        29.88S
READING        CLOUDY    53  48  83 N8        29.88F
LANCASTER      CLOUDY    53  49  86 N12       29.87F
COATESVILLE    CLOUDY    52  50  93 N8        29.86S
POTTSTOWN      CLOUDY    53  49  86 N9        29.88F
BLUE BELL      CLOUDY    54  52  94 CALM      29.85S
DOYLESTOWN     CLOUDY    51  51 100 N8        29.85F
WILLOW GROVE   NOT AVBL
NORTH PHILA    CLOUDY    56  49  77 N10       29.86S
PHILADELPHIA   CLOUDY    57  50  77 N15       29.84F
$$



USA.gov is the U.S. government's official web portal to all federal, state and local government web resources and services.